Miscellaneous Local Product
Issued by NWS North Platte, NE

Home | Current Version | Previous Version | Graphics & Text | Print | Product List | Glossary On
Versions: 1 2 3 4 5 6 7 8 9 10 11 12 13 14 15 16 17 18 19 20 21 22 23 24 25 26 27 28 29 30 31 32 33 34 35 36 37 38 39 40 41 42 43 44 45 46 47 48 49 50
000
AXUS43 KLBF 260310
MISLBF


WESTERN AND NORTH CENTRAL NEBRASKA HOURLY WEATHER ROUNDUP
NATIONAL WEATHER SERVICE NORTH PLATTE NE
1000 PM CDT THU MAY 25 2017

NOTE: "FAIR" INDICATES FEW OR NO CLOUDS BELOW 12,000 FEET WITH NO
SIGNIFICANT WEATHER AND/OR OBSTRUCTIONS TO VISIBILITY.

NOTE: STATIONS NOT REPORTING VARIABLES SUCH AS SKY/WEATHER OR
PRESSURE ARE PROVIDED BY RAWS AND APRS NETWORKS AND ARE NOT UNDER
NATIONAL WEATHER SERVICE QUALITY CONTROL.

...OBSERVATIONS IN AND NEAR THE EASTERN PANHANDLE OF NEBRASKA...

CITY           SKY/WX    TMP DP  RH WIND       PRES   REMARKS
PINE RIDGE     CLOUDY    59  40  49 N20       29.72R
GORDON         CLOUDY    60  44  55 CALM      29.71R HAZE
CHADRON        PTCLDY    59  39  47 NW10      29.73R
ALLIANCE       CLOUDY    53  51  93 CALM      29.71S
SIDNEY         CLOUDY    54  50  86 NE7       29.73F
CRESCENT LAKE    N/A     54  51  90 NE7G23      N/A
$$

...OBSERVATIONS IN NORTHERN NEBRASKA AND FAR SOUTHERN SOUTH DAKOTA...

CITY           SKY/WX    TMP DP  RH WIND       PRES   REMARKS
WINNER         FAIR      62  44  51 SW3       29.64R
VALENTINE      PTCLDY    60  47  61 CALM      29.67R
THEDFORD       MOCLDY    62  52  68 N3        29.69R
AINSWORTH      CLOUDY    59  50  72 N5        29.67R
O`NEILL        PTCLDY    65  54  67 N3        29.64R
ORD            CLOUDY    62  54  74 CALM      29.61R
BROKEN BOW     CLOUDY    63  56  78 CALM      29.65R
VALENTINE NWR    N/A     63  46  54 NE3         N/A
HALSEY           N/A     64  51  61 CALM        N/A
BUTTE            N/A     63  52  67 N3          N/A
CHAMBERS         N/A     61  53  75 CALM        N/A
EWING            N/A     62  55  77 CALM        N/A
$$

...OBSERVATIONS IN SOUTHWEST NEBRASKA AND FAR NORTHEAST COLORADO...

CITY           SKY/WX    TMP DP  RH WIND       PRES   REMARKS
WRAY           FAIR      61  50  67 W8        29.74R
IMPERIAL       CLOUDY    58  54  86 N6        29.67R
OGALLALA       CLOUDY    61  55  81 N14G29    29.70R
NORTH PLATTE   CLOUDY    59  56  89 CALM      29.65R
MCCOOK         CLOUDY    64  52  64 S12       29.61S
LEXINGTON      CLOUDY    65  58  77 NE3       29.66R
STAPLETON        N/A     61  55  79 CALM        N/A
GOTHENBURG       N/A     68  53  59 S3          N/A
CALLAWAY         N/A     62  56  81 N3          N/A
$$

...OBSERVATIONS IN CENTRAL LINCOLN COUNTY AREA...

CITY           SKY/WX    TMP DP  RH WIND       PRES   REMARKS
N.P. AIRPORT   CLOUDY    59  56  89 CALM      29.65R
N.P. DOWNTOWN    N/A     59  56  88 CALM        N/A
N.P. SOUTHEAST   N/A     60  55  84 CALM        N/A
N.P. HILLCREST   N/A     61  56  83 SE3         N/A
$$

...SOME OBSERVATIONS FROM AROUND THE REGION...

CITY           SKY/WX    TMP DP  RH WIND       PRES   REMARKS
DENVER         CLOUDY    51  44  77 N8        29.82R
LIMON          CLOUDY    49  46  90 NW16      29.79R
ASPEN          CLOUDY    49  38  65 S15       29.90R
LARAMIE        CLOUDY    47  37  68 NW7       29.88R
CASPER         MOCLDY    48  36  63 NE16      29.85R
CHEYENNE       CLOUDY    49  43  80 W8        29.83R
SCOTTSBLUFF    CLOUDY    57  52  83 CALM      29.74R
GRAND ISLAND   MOCLDY    68  58  70 SE6       29.61R
OMAHA          CLOUDY    69  54  58 SE10      29.64R
SIOUX FALLS    PTCLDY    61  53  75 S7        29.62R
PIERRE         CLOUDY    66  39  37 NW20G26   29.63R
RAPID CITY     PTCLDY    53  40  61 N21       29.74R
BISMARCK       CLOUDY    61  44  53 W10       29.60R
KANSAS CITY    PTCLDY    68  56  65 SE8       29.65R
HILL CITY      LGT RAIN  66  57  72 N16G29    29.64F
WICHITA        MOCLDY    74  61  63 SE12      29.51R
DODGE CITY     PTCLDY    77  58  51 N9G28     29.54R
OKLAHOMA CITY  MOCLDY    76  59  55 S15       29.53R
DALLAS         MOCLDY    83  61  47 S17       29.61R
AMARILLO       PTCLDY    72  29  20 SW8       29.63R
$$




USA.gov is the U.S. government's official web portal to all federal, state and local government web resources and services.